Location: Burzi?i
(45.0869°N, 16.0577°E)
Time: 11:57:09
(UTC+00:00)

CZ-4 R/B - Pass Details

Date: 29 October 2020
Orbit: 579 x 589 km, 97.8° (Epoch: 28 November)

Event Time Altitude Azimuth Distance (km) Brightness Sun altitude
Rises 17:15:25 0° 168° (SSE) 2,807 7.8 -16.0°
Reaches altitude 10° 17:17:33 10° 169° (S) 1,911 7.0 -16.4°
Maximum altitude 17:21:43 82° 257° (WSW) 602 4.5 -17.1°
Drops below altitude 10° 17:25:54 10° 345° (NNW) 1,927 7.2 -17.9°
Sets 17:28:05 0° 347° (NNW) 2,833 8.1 -18.2°
